sat.trackr.live / text

‹ back to catalog

LEMUR-2-ZACHARY

NORAD 42845 · 2017-042W

PAYLOAD ACTIVE UNKNOWN

§ Identity

Operator
Country
US
Launch date
2017-07-14
Launch site
TYMSC
Launch vehicle
Mass (kg)
RCS (m²)

Purposes: earth_obs

External: N2YO · Heavens-Above · Gunter

§ Orbital elements

Epoch: 2026-05-25T01:35:24.770688Z

Period
93.02 min
Inclination
97.3624°
Eccentricity
0.0004506
Mean motion
15.48047556 rev/d
Perigee alt
419.4 km
Apogee alt
425.5 km
Semi-major
6,800.6 km
B*
7.7209e-4
RAAN
336.2468°
Arg perigee
105.6802°
Mean anomaly
254.4946°
Rev number
48,562

§ Raw data

LEMUR-2-ZACHARY1 42845U 17042W   26145.06625892  .00040487  00000+0  77209-3 0  99932 42845  97.3624 336.2468 0004506 105.6802 254.4946 15.48047556485629

JSON: /api/v1/satellites/42845 · /tle

For live sub-satellite position, see the globe view (requires WebGL).

§ Visibility from observer

Set your observer location to see the next 7 days of passes ≥ 10°. The values pass through the URL so the page stays shareable.

No JS? Fill the form by hand. The geolocation button needs JavaScript.